User: anonymous   Login
Location: LDNL
(36.4545°S, 141.6685°E)
Time: 04:49:41
(UTC+11:00)
Language:

BlueWalker 3 - Orbit

View from above orbital plane
View from above orbital plane
View from above satellite
View from above satellite

Ground track
Ground track

The orbit data is extracted from the following two-line orbital elements,

1 53807U 22111AL  23333.45736206  .00008990  00000-0  39036-3 0  9997
2 53807  53.2358  36.2633 0010422 193.4492 166.6230 15.23021901 67613
Epoch (UTC): 29 November 2023 10:58:36
Eccentricity: 0.0010422
inclination: 53.2358°
perigee height: 489 km
apogee height: 504 km
right ascension of ascending node: 36.2633°
argument of perigee: 193.4492°
revolutions per day: 15.23021901
mean anomaly at epoch: 166.6230°
orbit number at epoch: 6761

The dashed part of the orbit path shows where the satellite is in the earth's shadow,  

DLR